owner,sensor,date,latitude,longitude,vertical_datum,direction_of_sea_water_velocity,sea_water_speed,upward_sea_water_velocity,qcFlag 
TABS,ioos:station:wmo:42049:1,2009-07-01T00:00:00Z,28.3507,-96.0058,2.0,28.96019943,9.417600544,-99999.0,'11133222,11111222,99999999' 
TABS,ioos:station:wmo:42049:1,2009-07-01T00:30:00Z,28.3507,-96.0058,2.0,20.56631801,13.26544383,-99999.0,'11111222,11111222,99999999' 
TABS,ioos:station:wmo:42049:1,2009-07-01T01:00:00Z,28.3507,-96.0058,2.0,21.49080995,11.98309643,-99999.0,'11111222,11111222,99999999' 
TABS,ioos:station:wmo:42049:1,2009-07-01T01:30:00Z,28.3507,-96.0058,2.0,16.9075943,11.86275685,-99999.0,'11111222,11111222,99999999' 
TABS,ioos:station:wmo:42049:1,2009-07-01T02:00:00Z,28.3507,-96.0058,2.0,17.55413772,13.1629556,-99999.0,'11111222,11111222,99999999' 
TABS,ioos:station:wmo:42049:1,2009-07-01T02:30:00Z,28.3507,-96.0058,2.0,21.63861963,16.97633647,-99999.0,'11111222,11111222,99999999' 
TABS,ioos:station:wmo:42049:1,2009-07-01T03:00:00Z,28.3507,-96.0058,2.0,20.16763679,13.80649123,-99999.0,'11111222,11111222,99999999' 
TABS,ioos:station:wmo:42049:1,2009-07-01T03:30:00Z,28.3507,-96.0058,2.0,25.4697827,15.67322877,-99999.0,'11111222,11111222,99999999' 
TABS,ioos:station:wmo:42049:1,2009-07-01T04:00:00Z,28.3507,-96.0058,2.0,31.2819373,14.52100892,-99999.0,'11111222,11111222,99999999' 
TABS,ioos:station:wmo:42049:1,2009-07-01T04:30:00Z,28.3507,-96.0058,2.0,35.04471095,16.07415628,-99999.0,'11111222,11111222,99999999' 
TABS,ioos:station:wmo:42049:1,2009-07-01T05:00:00Z,28.3507,-96.0058,2.0,35.80176998,17.91511373,-99999.0,'11111222,11111222,99999999' 
TABS,ioos:station:wmo:42049:1,2009-07-01T05:30:00Z,28.3507,-96.0058,2.0,43.96905356,15.32548531,-99999.0,'11111222,11111222,99999999' 
TABS,ioos:station:wmo:42049:1,2009-07-01T06:00:00Z,28.3507,-96.0058,2.0,47.69498053,15.94167494,-99999.0,'11111222,11111222,99999999' 
TABS,ioos:station:wmo:42049:1,2009-07-01T06:30:00Z,28.3507,-96.0058,2.0,49.76182764,17.63246154,-99999.0,'11111222,11111222,99999999' 
TABS,ioos:station:wmo:42049:1,2009-07-01T07:00:00Z,28.3507,-96.0058,2.0,48.64260295,19.4777129,-99999.0,'11111222,11111222,99999999' 
TABS,ioos:station:wmo:42049:1,2009-07-01T07:30:00Z,28.3507,-96.0058,2.0,52.46835562,18.00720134,-99999.0,'11111222,11111222,99999999' 
TABS,ioos:station:wmo:42049:1,2009-07-01T08:00:00Z,28.3507,-96.0058,2.0,58.14835775,16.5996265,-99999.0,'11111222,11111222,99999999' 
TABS,ioos:station:wmo:42049:1,2009-07-01T08:30:00Z,28.3507,-96.0058,2.0,60.8185567,18.4175677,-99999.0,'11111222,11111222,99999999' 
TABS,ioos:station:wmo:42049:1,2009-07-01T09:00:00Z,28.3507,-96.0058,2.0,60.57455067,19.80493373,-99999.0,'11111222,11111222,99999999' 
TABS,ioos:station:wmo:42049:1,2009-07-01T09:30:00Z,28.3507,-96.0058,2.0,65.48968993,20.70588564,-99999.0,'11111222,11111222,99999999' 
TABS,ioos:station:wmo:42049:1,2009-07-01T10:00:00Z,28.3507,-96.0058,2.0,74.59443312,20.70390301,-99999.0,'11111222,11111222,99999999' 
TABS,ioos:station:wmo:42049:1,2009-07-01T10:30:00Z,28.3507,-96.0058,2.0,69.79765171,17.63492557,-99999.0,'11111222,11111222,99999999' 
TABS,ioos:station:wmo:42049:1,2009-07-01T11:00:00Z,28.3507,-96.0058,2.0,76.3312113,12.10277654,-99999.0,'11111222,11111222,99999999' 
TABS,ioos:station:wmo:42049:1,2009-07-01T11:30:00Z,28.3507,-96.0058,2.0,73.1450098,19.72746309,-99999.0,'11111222,11111222,99999999' 
TABS,ioos:station:wmo:42049:1,2009-07-01T12:00:00Z,28.3507,-96.0058,2.0,80.06824693,17.85761742,-99999.0,'11111222,11111222,99999999' 
TABS,ioos:station:wmo:42049:1,2009-07-01T12:30:00Z,28.3507,-96.0058,2.0,75.21607884,18.77143042,-99999.0,'11111222,11111222,99999999' 
TABS,ioos:station:wmo:42049:1,2009-07-01T13:00:00Z,28.3507,-96.0058,2.0,87.92997419,19.10246581,-99999.0,'11111222,11111222,99999999' 
TABS,ioos:station:wmo:42049:1,2009-07-01T13:30:00Z,28.3507,-96.0058,2.0,87.60254869,18.64632135,-99999.0,'11111222,11111222,99999999' 
TABS,ioos:station:wmo:42049:1,2009-07-01T14:00:00Z,28.3507,-96.0058,2.0,95.80255688,18.59527897,-99999.0,'11111222,11111222,99999999' 
TABS,ioos:station:wmo:42049:1,2009-07-01T14:30:00Z,28.3507,-96.0058,2.0,97.39166633,18.65502613,-99999.0,'11111222,11111222,99999999' 
TABS,ioos:station:wmo:42049:1,2009-07-01T15:00:00Z,28.3507,-96.0058,2.0,98.66497671,18.7844031,-99999.0,'11111222,11111222,99999999' 
TABS,ioos:station:wmo:42049:1,2009-07-01T15:30:00Z,28.3507,-96.0058,2.0,97.54940411,12.55886141,-99999.0,'11111222,11111222,99999999' 
TABS,ioos:station:wmo:42049:1,2009-07-01T16:00:00Z,28.3507,-96.0058,2.0,111.6754065,8.447301344,-99999.0,'11133222,11111222,99999999' 
TABS,ioos:station:wmo:42049:1,2009-07-01T16:30:00Z,28.3507,-96.0058,2.0,125.5207331,7.900189871,-99999.0,'11133222,11111222,99999999' 
TABS,ioos:station:wmo:42049:1,2009-07-01T17:00:00Z,28.3507,-96.0058,2.0,123.4786125,12.78037949,-99999.0,'11111222,11111222,99999999' 
TABS,ioos:station:wmo:42049:1,2009-07-01T17:30:00Z,28.3507,-96.0058,2.0,133.3191668,12.05428554,-99999.0,'11111222,11111222,99999999' 
TABS,ioos:station:wmo:42049:1,2009-07-01T18:00:00Z,28.3507,-96.0058,2.0,134.4481545,13.95186367,-99999.0,'11111222,11111222,99999999' 
TABS,ioos:station:wmo:42049:1,2009-07-01T18:30:00Z,28.3507,-96.0058,2.0,147.0046423,12.57875193,-99999.0,'11111222,11111222,99999999' 
TABS,ioos:station:wmo:42049:1,2009-07-01T19:00:00Z,28.3507,-96.0058,2.0,162.778871,11.04515278,-99999.0,'11111222,11111222,99999999' 
TABS,ioos:station:wmo:42049:1,2009-07-01T19:30:00Z,28.3507,-96.0058,2.0,153.3393873,10.74208546,-99999.0,'11111222,11111222,99999999' 
TABS,ioos:station:wmo:42049:1,2009-07-01T20:00:00Z,28.3507,-96.0058,2.0,176.8966896,13.67004389,-99999.0,'11111222,11111222,99999999' 
TABS,ioos:station:wmo:42049:1,2009-07-01T20:30:00Z,28.3507,-96.0058,2.0,182.9039199,13.02673021,-99999.0,'11111222,11111222,99999999' 
TABS,ioos:station:wmo:42049:1,2009-07-01T21:00:00Z,28.3507,-96.0058,2.0,214.0358668,9.18322928,-99999.0,'11133222,11111222,99999999' 
TABS,ioos:station:wmo:42049:1,2009-07-01T21:30:00Z,28.3507,-96.0058,2.0,249.1766644,7.285890474,-99999.0,'11133222,11111222,99999999' 
TABS,ioos:station:wmo:42049:1,2009-07-01T22:00:00Z,28.3507,-96.0058,2.0,254.0446055,8.185316121,-99999.0,'11133222,11111222,99999999' 
TABS,ioos:station:wmo:42049:1,2009-07-01T22:30:00Z,28.3507,-96.0058,2.0,285.827624,7.993028212,-99999.0,'11133222,11111222,99999999' 
TABS,ioos:station:wmo:42049:1,2009-07-01T23:00:00Z,28.3507,-96.0058,2.0,294.6054873,9.414881837,-99999.0,'11133222,11111222,99999999' 
TABS,ioos:station:wmo:42049:1,2009-07-01T23:30:00Z,28.3507,-96.0058,2.0,319.4932231,8.57527259,-99999.0,'11133222,11111222,99999999' 
TABS,ioos:station:wmo:42049:1,2009-07-02T00:00:00Z,28.3507,-96.0058,2.0,332.9182484,11.3999386,-99999.0,'11111222,11111222,99999999' 
TABS,ioos:station:wmo:42049:1,2009-07-02T00:30:00Z,28.3507,-96.0058,2.0,333.3976628,13.64448973,-99999.0,'11111222,11111222,99999999' 
TABS,ioos:station:wmo:42049:1,2009-07-02T01:00:00Z,28.3507,-96.0058,2.0,342.6462264,12.90755205,-99999.0,'11111222,11111222,99999999' 
TABS,ioos:station:wmo:42049:1,2009-07-02T01:30:00Z,28.3507,-96.0058,2.0,340.7165425,8.539086602,-99999.0,'11133222,11111222,99999999' 
TABS,ioos:station:wmo:42049:1,2009-07-02T02:00:00Z,28.3507,-96.0058,2.0,342.1698085,13.48786492,-99999.0,'11111222,11111222,99999999' 
TABS,ioos:station:wmo:42049:1,2009-07-02T02:30:00Z,28.3507,-96.0058,2.0,349.8497437,15.6042334,-99999.0,'11111222,11111222,99999999' 
TABS,ioos:station:wmo:42049:1,2009-07-02T03:00:00Z,28.3507,-96.0058,2.0,353.235864,15.96110585,-99999.0,'11111222,11111222,99999999' 
TABS,ioos:station:wmo:42049:1,2009-07-02T03:30:00Z,28.3507,-96.0058,2.0,357.9591767,14.03890665,-99999.0,'11111222,11111222,99999999' 
TABS,ioos:station:wmo:42049:1,2009-07-02T04:00:00Z,28.3507,-96.0058,2.0,2.91228888,15.55008039,-99999.0,'11111222,11111222,99999999' 
TABS,ioos:station:wmo:42049:1,2009-07-02T04:30:00Z,28.3507,-96.0058,2.0,4.186886383,15.75203479,-99999.0,'11111222,11111222,99999999' 
TABS,ioos:station:wmo:42049:1,2009-07-02T05:00:00Z,28.3507,-96.0058,2.0,15.32321953,14.79597918,-99999.0,'11111222,11111222,99999999' 
TABS,ioos:station:wmo:42049:1,2009-07-02T05:30:00Z,28.3507,-96.0058,2.0,25.99077988,13.82853933,-99999.0,'11111222,11111222,99999999' 
TABS,ioos:station:wmo:42049:1,2009-07-02T06:00:00Z,28.3507,-96.0058,2.0,32.28960672,14.75111182,-99999.0,'11111222,11111222,99999999' 
TABS,ioos:station:wmo:42049:1,2009-07-02T06:30:00Z,28.3507,-96.0058,2.0,47.07539034,11.13008985,-99999.0,'11111222,11111222,99999999' 
TABS,ioos:station:wmo:42049:1,2009-07-02T07:00:00Z,28.3507,-96.0058,2.0,48.36039521,15.44147661,-99999.0,'11111222,11111222,99999999' 
TABS,ioos:station:wmo:42049:1,2009-07-02T07:30:00Z,28.3507,-96.0058,2.0,56.78224562,15.47943474,-99999.0,'11111222,11111222,99999999' 
TABS,ioos:station:wmo:42049:1,2009-07-02T08:00:00Z,28.3507,-96.0058,2.0,59.55040523,12.80631485,-99999.0,'11111222,11111222,99999999' 
TABS,ioos:station:wmo:42049:1,2009-07-02T08:30:00Z,28.3507,-96.0058,2.0,66.69764649,13.04400245,-99999.0,'11111222,11111222,99999999' 
TABS,ioos:station:wmo:42049:1,2009-07-02T09:00:00Z,28.3507,-96.0058,2.0,68.73767846,15.00113329,-99999.0,'11111222,11111222,99999999' 
TABS,ioos:station:wmo:42049:1,2009-07-02T09:30:00Z,28.3507,-96.0058,2.0,76.22619291,12.18026683,-99999.0,'11111222,11111222,99999999' 
TABS,ioos:station:wmo:42049:1,2009-07-02T10:00:00Z,28.3507,-96.0058,2.0,69.70677378,11.99450291,-99999.0,'11111222,11111222,99999999' 
TABS,ioos:station:wmo:42049:1,2009-07-02T10:30:00Z,28.3507,-96.0058,2.0,76.29436292,10.50924355,-99999.0,'11111222,11111222,99999999' 
TABS,ioos:station:wmo:42049:1,2009-07-02T11:00:00Z,28.3507,-96.0058,2.0,80.37186639,9.088014084,-99999.0,'11133222,11111222,99999999' 
TABS,ioos:station:wmo:42049:1,2009-07-02T11:30:00Z,28.3507,-96.0058,2.0,91.18362592,9.682065895,-99999.0,'11133222,11111222,99999999' 
TABS,ioos:station:wmo:42049:1,2009-07-02T12:00:00Z,28.3507,-96.0058,2.0,90.0,13.22,-99999.0,'11111222,11111222,99999999' 
TABS,ioos:station:wmo:42049:1,2009-07-02T12:30:00Z,28.3507,-96.0058,2.0,94.30702211,14.38061195,-99999.0,'11111222,11111222,99999999' 
TABS,ioos:station:wmo:42049:1,2009-07-02T13:00:00Z,28.3507,-96.0058,2.0,101.8811298,11.80285559,-99999.0,'11111222,11111222,99999999' 
TABS,ioos:station:wmo:42049:1,2009-07-02T13:30:00Z,28.3507,-96.0058,2.0,113.7551875,10.94753397,-99999.0,'11111222,11111222,99999999' 
TABS,ioos:station:wmo:42049:1,2009-07-02T14:00:00Z,28.3507,-96.0058,2.0,119.6404165,12.25341177,-99999.0,'11111222,11111222,99999999' 
TABS,ioos:station:wmo:42049:1,2009-07-02T14:30:00Z,28.3507,-96.0058,2.0,116.5649891,13.66237534,-99999.0,'11111222,11111222,99999999' 
TABS,ioos:station:wmo:42049:1,2009-07-02T15:00:00Z,28.3507,-96.0058,2.0,127.4598934,10.29254585,-99999.0,'11111222,11111222,99999999' 
TABS,ioos:station:wmo:42049:1,2009-07-02T15:30:00Z,28.3507,-96.0058,2.0,126.1757351,9.080666275,-99999.0,'11133222,11111222,99999999' 
TABS,ioos:station:wmo:42049:1,2009-07-02T16:00:00Z,28.3507,-96.0058,2.0,130.9482204,10.20784992,-99999.0,'11111222,11111222,99999999' 
TABS,ioos:station:wmo:42049:1,2009-07-02T16:30:00Z,28.3507,-96.0058,2.0,128.6130538,11.50532485,-99999.0,'11111222,11111222,99999999' 
TABS,ioos:station:wmo:42049:1,2009-07-02T17:00:00Z,28.3507,-96.0058,2.0,147.7691529,10.78132181,-99999.0,'11111222,11111222,99999999' 
TABS,ioos:station:wmo:42049:1,2009-07-02T17:30:00Z,28.3507,-96.0058,2.0,152.9217995,9.490252894,-99999.0,'11133222,11111222,99999999' 
TABS,ioos:station:wmo:42049:1,2009-07-02T18:00:00Z,28.3507,-96.0058,2.0,162.9756257,9.119610737,-99999.0,'11133222,11111222,99999999' 
TABS,ioos:station:wmo:42049:1,2009-07-02T18:30:00Z,28.3507,-96.0058,2.0,166.9525127,8.150411033,-99999.0,'11133222,11111222,99999999' 
TABS,ioos:station:wmo:42049:1,2009-07-02T19:00:00Z,28.3507,-96.0058,2.0,212.6827747,7.259373251,-99999.0,'11133222,11111222,99999999' 
TABS,ioos:station:wmo:42049:1,2009-07-02T19:30:00Z,28.3507,-96.0058,2.0,244.4511777,7.814051446,-99999.0,'11133222,11111222,99999999' 
TABS,ioos:station:wmo:42049:1,2009-07-02T20:00:00Z,28.3507,-96.0058,2.0,266.1708872,13.02907902,-99999.0,'11111222,11111222,99999999' 
TABS,ioos:station:wmo:42049:1,2009-07-02T20:30:00Z,28.3507,-96.0058,2.0,259.6990996,11.80017796,-99999.0,'11111222,11111222,99999999' 
TABS,ioos:station:wmo:42049:1,2009-07-02T21:00:00Z,28.3507,-96.0058,2.0,268.2336507,14.92708947,-99999.0,'11111222,11111222,99999999' 
TABS,ioos:station:wmo:42049:1,2009-07-02T21:30:00Z,28.3507,-96.0058,2.0,272.566198,16.97701976,-99999.0,'11111222,11111222,99999999' 
TABS,ioos:station:wmo:42049:1,2009-07-02T22:00:00Z,28.3507,-96.0058,2.0,281.7406303,17.49601383,-99999.0,'11111222,11111222,99999999' 
TABS,ioos:station:wmo:42049:1,2009-07-02T22:30:00Z,28.3507,-96.0058,2.0,287.2438412,18.85757673,-99999.0,'11111222,11111222,99999999' 
TABS,ioos:station:wmo:42049:1,2009-07-02T23:00:00Z,28.3507,-96.0058,2.0,298.2232871,15.45770035,-99999.0,'11111222,11111222,99999999' 
TABS,ioos:station:wmo:42049:1,2009-07-02T23:30:00Z,28.3507,-96.0058,2.0,302.1911836,18.33911939,-99999.0,'11111222,11111222,99999999' 
TABS,ioos:station:wmo:42049:1,2009-07-03T00:00:00Z,28.3507,-96.0058,2.0,303.4186107,17.53981756,-99999.0,'11111222,11111222,99999999' 
TABS,ioos:station:wmo:42049:1,2009-07-03T00:30:00Z,28.3507,-96.0058,2.0,304.1940209,18.93264905,-99999.0,'11111222,11111222,99999999' 
TABS,ioos:station:wmo:42049:1,2009-07-03T01:00:00Z,28.3507,-96.0058,2.0,311.9533875,19.95447819,-99999.0,'11111222,11111222,99999999' 
TABS,ioos:station:wmo:42049:1,2009-07-03T01:30:00Z,28.3507,-96.0058,2.0,306.1337461,18.67154252,-99999.0,'11111222,11111222,99999999' 
TABS,ioos:station:wmo:42049:1,2009-07-03T02:00:00Z,28.3507,-96.0058,2.0,316.4712369,19.55794723,-99999.0,'11111222,11111222,99999999' 
TABS,ioos:station:wmo:42049:1,2009-07-03T02:30:00Z,28.3507,-96.0058,2.0,321.0159011,19.29713968,-99999.0,'11111222,11111222,99999999' 
TABS,ioos:station:wmo:42049:1,2009-07-03T03:00:00Z,28.3507,-96.0058,2.0,321.3225119,19.90590867,-99999.0,'11111222,11111222,99999999' 
TABS,ioos:station:wmo:42049:1,2009-07-03T03:30:00Z,28.3507,-96.0058,2.0,329.8182897,14.95778393,-99999.0,'11111222,11111222,99999999' 
TABS,ioos:station:wmo:42049:1,2009-07-03T04:00:00Z,28.3507,-96.0058,2.0,319.994048,16.81518659,-99999.0,'11111222,11111222,99999999' 
TABS,ioos:station:wmo:42049:1,2009-07-03T04:30:00Z,28.3507,-96.0058,2.0,316.9222672,16.86691436,-99999.0,'11111222,11111222,99999999' 
TABS,ioos:station:wmo:42049:1,2009-07-03T05:00:00Z,28.3507,-96.0058,2.0,321.2503185,17.86161527,-99999.0,'11111222,11111222,99999999' 
TABS,ioos:station:wmo:42049:1,2009-07-03T05:30:00Z,28.3507,-96.0058,2.0,322.3034943,16.07567417,-99999.0,'11111222,11111222,99999999' 
TABS,ioos:station:wmo:42049:1,2009-07-03T06:00:00Z,28.3507,-96.0058,2.0,334.736787,15.15998021,-99999.0,'11111222,11111222,99999999' 
TABS,ioos:station:wmo:42049:1,2009-07-03T06:30:00Z,28.3507,-96.0058,2.0,345.2154467,14.85172381,-99999.0,'11111222,11111222,99999999' 
TABS,ioos:station:wmo:42049:1,2009-07-03T07:00:00Z,28.3507,-96.0058,2.0,345.4618829,10.51674855,-99999.0,'11111222,11111222,99999999' 
TABS,ioos:station:wmo:42049:1,2009-07-03T07:30:00Z,28.3507,-96.0058,2.0,351.6608436,10.06643929,-99999.0,'11111222,11111222,99999999' 
TABS,ioos:station:wmo:42049:1,2009-07-03T08:00:00Z,28.3507,-96.0058,2.0,1.048560592,9.291555306,-99999.0,'11133222,11111222,99999999' 
TABS,ioos:station:wmo:42049:1,2009-07-03T08:30:00Z,28.3507,-96.0058,2.0,355.1165578,6.343027668,-99999.0,'11133222,11111222,99999999' 
TABS,ioos:station:wmo:42049:1,2009-07-03T09:00:00Z,28.3507,-96.0058,2.0,358.1099512,6.063299432,-99999.0,'11133222,11111222,99999999' 
TABS,ioos:station:wmo:42049:1,2009-07-03T09:30:00Z,28.3507,-96.0058,2.0,4.907498826,7.949138318,-99999.0,'11133222,11111222,99999999' 
TABS,ioos:station:wmo:42049:1,2009-07-03T10:00:00Z,28.3507,-96.0058,2.0,28.44307257,7.642512676,-99999.0,'11133222,11111222,99999999' 
TABS,ioos:station:wmo:42049:1,2009-07-03T10:30:00Z,28.3507,-96.0058,2.0,39.30020895,3.773393698,-99999.0,'11133222,11111222,99999999' 
TABS,ioos:station:wmo:42049:1,2009-07-03T11:00:00Z,28.3507,-96.0058,2.0,63.66350682,4.485588033,-99999.0,'11133222,11111222,99999999' 
TABS,ioos:station:wmo:42049:1,2009-07-03T11:30:00Z,28.3507,-96.0058,2.0,75.70482775,4.292924411,-99999.0,'11133222,11111222,99999999' 
TABS,ioos:station:wmo:42049:1,2009-07-03T12:00:00Z,28.3507,-96.0058,2.0,72.81883924,3.757685458,-99999.0,'11133222,11111222,99999999' 
TABS,ioos:station:wmo:42049:1,2009-07-03T12:30:00Z,28.3507,-96.0058,2.0,80.44144525,3.914345411,-99999.0,'11133222,11111222,99999999' 
TABS,ioos:station:wmo:42049:1,2009-07-03T13:00:00Z,28.3507,-96.0058,2.0,80.4997809,2.484069242,-99999.0,'11133222,11111222,99999999' 
TABS,ioos:station:wmo:42049:1,2009-07-03T13:30:00Z,28.3507,-96.0058,2.0,80.92296743,1.711432149,-99999.0,'11133222,11111222,99999999' 
TABS,ioos:station:wmo:42049:1,2009-07-03T14:00:00Z,28.3507,-96.0058,2.0,113.875225,2.668332813,-99999.0,'11133222,11111222,99999999' 
TABS,ioos:station:wmo:42049:1,2009-07-03T14:30:00Z,28.3507,-96.0058,2.0,75.54514386,4.647106627,-99999.0,'11133222,11111222,99999999' 
TABS,ioos:station:wmo:42049:1,2009-07-03T15:00:00Z,28.3507,-96.0058,2.0,61.03884432,4.171678319,-99999.0,'11133222,11111222,99999999' 
TABS,ioos:station:wmo:42049:1,2009-07-03T15:30:00Z,28.3507,-96.0058,2.0,72.96868837,8.262348334,-99999.0,'11133222,11111222,99999999' 
TABS,ioos:station:wmo:42049:1,2009-07-03T16:00:00Z,28.3507,-96.0058,2.0,93.43852275,4.668404438,-99999.0,'11133222,11111222,99999999' 
TABS,ioos:station:wmo:42049:1,2009-07-03T16:30:00Z,28.3507,-96.0058,2.0,67.71653717,4.193149175,-99999.0,'11133222,11111222,99999999' 
TABS,ioos:station:wmo:42049:1,2009-07-03T17:00:00Z,28.3507,-96.0058,2.0,69.15066024,5.02932401,-99999.0,'11133222,11111222,99999999' 
TABS,ioos:station:wmo:42049:1,2009-07-03T17:30:00Z,28.3507,-96.0058,2.0,71.39918072,6.552266783,-99999.0,'11133222,11111222,99999999' 
TABS,ioos:station:wmo:42049:1,2009-07-03T18:00:00Z,28.3507,-96.0058,2.0,80.88762076,5.114547878,-99999.0,'11133222,11111222,99999999' 
TABS,ioos:station:wmo:42049:1,2009-07-03T18:30:00Z,28.3507,-96.0058,2.0,70.30292109,4.450404476,-99999.0,'11133222,11111222,99999999' 
TABS,ioos:station:wmo:42049:1,2009-07-03T19:00:00Z,28.3507,-96.0058,2.0,80.6253749,2.14869728,-99999.0,'11133222,11111222,99999999' 
TABS,ioos:station:wmo:42049:1,2009-07-03T19:30:00Z,28.3507,-96.0058,2.0,92.27044436,4.543566881,-99999.0,'11133222,11111222,99999999' 
TABS,ioos:station:wmo:42049:1,2009-07-03T20:00:00Z,28.3507,-96.0058,2.0,105.5808874,1.079675877,-99999.0,'11133222,11111222,99999999' 
TABS,ioos:station:wmo:42049:1,2009-07-03T20:30:00Z,28.3507,-96.0058,2.0,120.1573105,4.996248593,-99999.0,'11133222,11111222,99999999' 
TABS,ioos:station:wmo:42049:1,2009-07-03T21:00:00Z,28.3507,-96.0058,2.0,107.1758635,3.454041112,-99999.0,'11133222,11111222,99999999' 
TABS,ioos:station:wmo:42049:1,2009-07-03T21:30:00Z,28.3507,-96.0058,2.0,166.9305022,1.149782588,-99999.0,'11133222,11111222,99999999' 
TABS,ioos:station:wmo:42049:1,2009-07-03T22:00:00Z,28.3507,-96.0058,2.0,173.701262,4.557510285,-99999.0,'11133222,11111222,99999999' 
TABS,ioos:station:wmo:42049:1,2009-07-03T22:30:00Z,28.3507,-96.0058,2.0,269.4149499,0.980051019,-99999.0,'11133222,11111222,99999999' 
TABS,ioos:station:wmo:42049:1,2009-07-03T23:00:00Z,28.3507,-96.0058,2.0,233.5341507,5.384134099,-99999.0,'11133222,11111222,99999999' 
TABS,ioos:station:wmo:42049:1,2009-07-03T23:30:00Z,28.3507,-96.0058,2.0,210.5078042,4.097230772,-99999.0,'11133222,11111222,99999999' 
TABS,ioos:station:wmo:42049:1,2009-07-04T00:00:00Z,28.3507,-96.0058,2.0,214.7957345,6.466235381,-99999.0,'11133222,11111222,99999999' 
TABS,ioos:station:wmo:42049:1,2009-07-04T00:30:00Z,28.3507,-96.0058,2.0,258.5577772,8.519307484,-99999.0,'11133222,11111222,99999999' 
TABS,ioos:station:wmo:42049:1,2009-07-04T01:00:00Z,28.3507,-96.0058,2.0,274.2683042,10.07794622,-99999.0,'11111222,11111222,99999999' 
TABS,ioos:station:wmo:42049:1,2009-07-04T01:30:00Z,28.3507,-96.0058,2.0,279.6950427,11.75791223,-99999.0,'11111222,11111222,99999999' 
TABS,ioos:station:wmo:42049:1,2009-07-04T02:00:00Z,28.3507,-96.0058,2.0,284.3775501,13.45126388,-99999.0,'11111222,11111222,99999999' 
TABS,ioos:station:wmo:42049:1,2009-07-04T02:30:00Z,28.3507,-96.0058,2.0,292.2823874,14.61102324,-99999.0,'11111222,11111222,99999999' 
TABS,ioos:station:wmo:42049:1,2009-07-04T03:00:00Z,28.3507,-96.0058,2.0,294.3036319,13.14490396,-99999.0,'11111222,11111222,99999999' 
TABS,ioos:station:wmo:42049:1,2009-07-04T03:30:00Z,28.3507,-96.0058,2.0,307.1615055,13.37617285,-99999.0,'11111222,11111222,99999999' 
TABS,ioos:station:wmo:42049:1,2009-07-04T04:00:00Z,28.3507,-96.0058,2.0,323.0372859,14.7680195,-99999.0,'11111222,11111222,99999999' 
TABS,ioos:station:wmo:42049:1,2009-07-04T04:30:00Z,28.3507,-96.0058,2.0,315.7710626,15.76990805,-99999.0,'11111222,11111222,99999999' 
TABS,ioos:station:wmo:42049:1,2009-07-04T05:00:00Z,28.3507,-96.0058,2.0,320.1281594,15.42717408,-99999.0,'11111222,11111222,99999999' 
TABS,ioos:station:wmo:42049:1,2009-07-04T05:30:00Z,28.3507,-96.0058,2.0,333.4913752,13.68921473,-99999.0,'11111222,11111222,99999999' 
TABS,ioos:station:wmo:42049:1,2009-07-04T06:00:00Z,28.3507,-96.0058,2.0,343.7205753,14.12640082,-99999.0,'11111222,11111222,99999999' 
TABS,ioos:station:wmo:42049:1,2009-07-04T06:30:00Z,28.3507,-96.0058,2.0,338.7822905,13.67717076,-99999.0,'11111222,11111222,99999999' 
TABS,ioos:station:wmo:42049:1,2009-07-04T07:00:00Z,28.3507,-96.0058,2.0,345.478602,16.03218014,-99999.0,'11111222,11111222,99999999' 
TABS,ioos:station:wmo:42049:1,2009-07-04T07:30:00Z,28.3507,-96.0058,2.0,349.1163176,13.45197755,-99999.0,'11111222,11111222,99999999' 
TABS,ioos:station:wmo:42049:1,2009-07-04T08:00:00Z,28.3507,-96.0058,2.0,4.470069156,9.880050607,-99999.0,'11133222,11111222,99999999' 
TABS,ioos:station:wmo:42049:1,2009-07-04T08:30:00Z,28.3507,-96.0058,2.0,7.487835972,12.73862237,-99999.0,'11111222,11111222,99999999' 
TABS,ioos:station:wmo:42049:1,2009-07-04T09:00:00Z,28.3507,-96.0058,2.0,14.75615301,14.09485722,-99999.0,'11111222,11111222,99999999' 
TABS,ioos:station:wmo:42049:1,2009-07-04T09:30:00Z,28.3507,-96.0058,2.0,31.10045704,12.95160994,-99999.0,'11111222,11111222,99999999' 
TABS,ioos:station:wmo:42049:1,2009-07-04T10:00:00Z,28.3507,-96.0058,2.0,39.7756986,14.67686956,-99999.0,'11111222,11111222,99999999' 
TABS,ioos:station:wmo:42049:1,2009-07-04T10:30:00Z,28.3507,-96.0058,2.0,40.42981128,13.39985448,-99999.0,'11111222,11111222,99999999' 
TABS,ioos:station:wmo:42049:1,2009-07-04T11:00:00Z,28.3507,-96.0058,2.0,17.73317676,14.97134596,-99999.0,'11111222,11111222,99999999' 
TABS,ioos:station:wmo:42049:1,2009-07-04T11:30:00Z,28.3507,-96.0058,2.0,44.1457384,16.5976414,-99999.0,'11111222,11111222,99999999' 
TABS,ioos:station:wmo:42049:1,2009-07-04T12:00:00Z,28.3507,-96.0058,2.0,50.06371024,15.70248388,-99999.0,'11111222,11111222,99999999' 
TABS,ioos:station:wmo:42049:1,2009-07-04T12:30:00Z,28.3507,-96.0058,2.0,50.89494108,19.69098271,-99999.0,'11111222,11111222,99999999' 
TABS,ioos:station:wmo:42049:1,2009-07-04T13:00:00Z,28.3507,-96.0058,2.0,59.51307761,18.96154002,-99999.0,'11111222,11111222,99999999' 
TABS,ioos:station:wmo:42049:1,2009-07-04T13:30:00Z,28.3507,-96.0058,2.0,60.94546384,19.97352247,-99999.0,'11111222,11111222,99999999' 
TABS,ioos:station:wmo:42049:1,2009-07-04T14:00:00Z,28.3507,-96.0058,2.0,63.99986121,19.96011273,-99999.0,'11111222,11111222,99999999' 
TABS,ioos:station:wmo:42049:1,2009-07-04T14:30:00Z,28.3507,-96.0058,2.0,64.24176637,20.96297927,-99999.0,'11111222,11111222,99999999' 
TABS,ioos:station:wmo:42049:1,2009-07-04T15:00:00Z,28.3507,-96.0058,2.0,63.70938939,20.54522816,-99999.0,'11111222,11111222,99999999' 
TABS,ioos:station:wmo:42049:1,2009-07-04T15:30:00Z,28.3507,-96.0058,2.0,70.65493518,22.09762204,-99999.0,'11111222,11111222,99999999' 
TABS,ioos:station:wmo:42049:1,2009-07-04T16:00:00Z,28.3507,-96.0058,2.0,72.19125128,23.14925485,-99999.0,'11111222,11111222,99999999' 